Location: Azul
(36.7830°S, 59.8500°W)
Time: 13:16:55
(UTC-03:00)

Tiangong - Visible Passes

Search period start: 25 July 2024 00:00
Search period end: 04 August 2024 00:00
Orbit: 389 x 392 km, 41.5° (Epoch: 25 July)

Date Brightness Start Highest point End Pass type
(mag) Time Alt. Az. Time Alt. Az. Time Alt. Az.
28 Jul 1.2 07:13:26 10° NNE 07:14:48 12° NE 07:16:09 10° ENE visible
30 Jul 0.2 06:52:58 10° NNW 06:55:38 24° NNE 06:58:19 10° E visible
31 Jul 0.8 05:56:53 12° NNE 05:57:49 14° NE 05:59:32 10° ENE visible
31 Jul -1.9 07:31:09 10° WNW 07:34:25 80° NNE 07:37:40 10° ESE visible
01 Aug -1.2 06:34:40 22° NW 06:36:25 46° NNE 06:39:34 10° ESE visible
02 Aug 0.7 05:39:50 19° ENE 05:39:50 19° ENE 05:41:15 10° E visible
02 Aug -2.0 07:12:11 11° W 07:15:16 61° SSW 07:18:30 10° ESE visible
03 Aug -2.2 06:17:10 87° NE 06:17:10 87° NE 06:20:24 10° ESE visible
